Location: Korczew
(51.3586°N, 19.4491°E)
Time: 07:28:03
(UTC+00:00)

Ariane Rocket - Pass Details

Date: 19 May 2025
Orbit: 755 x 764 km, 98.5° (Epoch: 16 June)

Event Time Altitude Azimuth Distance (km) Brightness Sun altitude
Exits shadow 19:36:55 10° 147° (SSE) 2,293 4.8 -8.3°
Reaches altitude 10° 19:36:56 10° 147° (SSE) 2,291 4.8 -8.3°
Maximum altitude 19:41:52 58° 69° (ENE) 892 3.2 -8.9°
Drops below altitude 10° 19:46:52 10° 352° (N) 2,312 6.5 -9.4°
Sets 19:49:12 0° 348° (NNW) 3,244 7.5 -9.6°
